Location: Caltech
(34.1382°N, 118.1253°W)
Time: 10:12:35
(UTC-07:00)

SL-08 R/B - Visible Passes

Search period start: 26 April 2018 00:00
Search period end: 06 May 2018 00:00
Orbit: 675 x 739 km, 98.3° (Epoch: 26 April)

Date Brightness Start Highest point End Pass type
(mag) Time Alt. Az. Time Alt. Az. Time Alt. Az.
26 Apr 6.0 01:57:14 15° NE 01:57:14 15° NE 01:58:50 10° NNE visible
26 Apr 5.3 03:36:12 19° NW 03:36:12 19° NW 03:37:40 10° NNW visible
27 Apr 5.2 02:41:49 27° NNE 02:41:49 27° NNE 02:44:12 10° N visible
28 Apr 6.1 01:47:28 13° NE 01:47:28 13° NE 01:48:53 10° NNE visible
28 Apr 5.1 03:26:26 24° NNW 03:26:26 24° NNW 03:28:25 10° NNW visible
29 Apr 5.2 02:32:03 28° NNE 02:32:03 28° NNE 02:34:41 10° N visible
29 Apr 5.6 04:11:02 11° NW 04:11:02 11° NW 04:11:20 10° NW visible
30 Apr 6.2 01:37:42 11° NE 01:37:42 11° NE 01:38:35 10° NE visible
30 Apr 4.8 03:16:40 29° NNW 03:16:40 29° NNW 03:19:07 10° NNW visible
01 May 5.3 02:22:18 26° NE 02:22:18 26° NE 02:25:08 10° N visible
01 May 5.4 04:01:17 15° NW 04:01:17 15° NW 04:02:25 10° NW visible
02 May 4.6 03:06:55 35° NNW 03:06:55 35° NNW 03:09:46 10° NNW visible
03 May 5.5 02:12:34 24° NE 02:12:34 24° NE 02:15:30 10° NNE visible
03 May 5.1 03:51:32 19° NW 03:51:32 19° NW 03:53:22 10° NW visible
04 May 4.5 02:57:11 40° N 02:57:11 40° N 03:00:23 10° N visible
05 May 5.6 02:02:49 20° ENE 02:02:49 20° ENE 02:05:48 10° NNE visible
05 May 4.8 03:41:48 25° NW 03:41:48 25° NW 03:44:13 10° NNW visible
